Погода в Харъяге

Россия / Республика Коми     66°55′30″N   52°10′00″E
темп.,
°C
ветер,
м/с
пор.,
м/с
влажн.,
%
обл.,
%
осадки,
мм/ч
давл.,
гПа
погр.,
м
20 апреля, вт
вт2000:00−2з7158394 0.0 1026284
03:00−3з7148823 0.0 1026243
06:00−2з7139236 0.0 1026286
09:000зсз6109971 0.0 1026340
12:00+2з599958 0.0 1027312
15:00+3з6119522 0.0 1027333
18:00+2з5119013 0.0 1027225
21:000зюз498629 0.0 1027118
21 апреля, ср
ср2100:000зюз46875 0.0 102773
03:00−1зюз34875 0.0 102738
06:00+1юз358010 0.0 102778
09:00+4ююз367976 0.0 1026145
12:00+7ююз3665100 0.0 1025245
15:00+8ююз346496 0.0 102468
18:00+5ююв4468100 0.0 102339
21:00+4ююв5775100 0.0 102272
22 апреля, чт
чт2200:00+3ююв51181100 0.0 1020129
03:00+2ююв61384100 0.0 1018185
06:00+3ююв71483100 0.0 1016340
09:00+7ю91374100 0.0 1014815
12:00+6ю91478100 0.0 1014671
15:00+6ю81382100 0.0 1013443
18:00+5ю91392100 0.0 1013510
21:00+4ю8139299 0.0 1013521
23 апреля, пт
пт2300:00+4ю81390100 0.1 1012406
03:00+3ю814906 0.1 1012313
06:00+4ю101587100 0.0 1012603
09:00+5ю91486100 0.0 1011940
12:00+4ююз71197100 0.1 1012856
15:00+6зюз91065100 0.4 10151452
18:00+5зюз71077100 0.1 1017711
21:00+3з499185 0.4 1019569
24 апреля, сб
сб2400:00+2юз47907 0.0 1020132
03:00+1з229290 0.0 102214
06:00+3юв458197 0.0 1022209
09:00+7ююв796864 0.0 1020444
12:00+12ю895758 0.0 1019780
15:00+15ю78475 0.0 10191552
18:00+13ююв610535 0.0 1018184
21:00+9ююв596923 0.0 1018118